Flag for U.S.A. Weather past 2 weeks in Syracuse, New York, U.S.A.

Now
54 °F

Scattered clouds.


Feels Like: 51 °F
Forecast: 42 / 59 °F
Wind: 9 mph from West

Location: Syracuse Hancock International Airport

Current Time: May 22, 2015 at 9:51:49 AM

Latest Report: May 22, 2015 at 8:54 AM


Visibility: 10 mi

Pressure: 29.94 "Hg

Humidity: 64%

Dew point: 42 °F

Location of SyracuseLocation

Historic Weather in Syracuse — Graph

°F

Syracuse temperature yesterday

Maximum temperature yesterday: 65 °F (at 2:54 PM)
Minimum temperature yesterday: 44 °F (at 1:54 AM)
Average temperature yesterday: 55 °F

Past Weeks' High & Low Weather Summary

 TemperatureHumidityPressure
High89 °F (May 8, 3:54 PM)100% (May 16, 5:54 AM)30.46 "Hg (May 16, 5:54 AM)
Low38 °F (May 14, 4:54 AM)22% (May 8, 3:54 PM)29.77 "Hg (May 12, 5:54 AM)
Average64 °F65%30.04 "Hg
* Reported May 7 8:54 AM — May 22 8:54 AM, Syracuse, Weather by CustomWeather, © 2015

Note: Actual official high and low records may vary slightly from our data, if they occured in-between our weather recording intervals... More about our weather records

Advertising

Syracuse weather history for previous 24 hours

 ConditionsComfort  
Time TempWeatherWind HumidityBarometerVisibility
8:54 AM
Fri, May 22
54 °FScattered clouds.9 mph64%29.94 "Hg10 mi
7:54 AM52 °FScattered clouds.13 mph64%29.92 "Hg10 mi
6:54 AM53 °FPassing clouds.14 mph59%29.88 "Hg10 mi
5:54 AM53 °FPartly cloudy.13 mph56%29.85 "Hg10 mi
4:54 AM52 °FPassing clouds.12 mph57%29.84 "Hg10 mi
3:54 AM53 °FMostly cloudy.12 mph52%29.83 "Hg10 mi
2:54 AM53 °FOvercast.8 mph52%29.83 "Hg10 mi
1:54 AM53 °FMostly cloudy.10 mph52%29.84 "Hg10 mi
12:54 AM54 °FOvercast.8 mph55%29.85 "Hg10 mi
11:54 PM
Thu, May 21
56 °FMostly cloudy.8 mph60%29.85 "Hg10 mi
10:54 PM56 °FMostly cloudy.3 mph53%29.85 "Hg10 mi
9:54 PM56 °FPassing clouds.No wind51%29.87 "Hg10 mi
8:54 PM58 °FBroken clouds.6 mph41%29.86 "Hg10 mi
7:54 PM60 °FPartly sunny.7 mph36%29.85 "Hg10 mi
6:54 PM61 °FPartly sunny.6 mph32%29.84 "Hg10 mi
5:54 PM62 °FPartly sunny.10 mph32%29.84 "Hg10 mi
4:54 PM63 °FBroken clouds.5 mph30%29.85 "Hg10 mi
3:54 PM64 °FScattered clouds.7 mph34%29.86 "Hg10 mi
2:54 PM65 °FScattered clouds.12 mph36%29.87 "Hg10 mi
1:54 PM63 °FScattered clouds.12 mph35%29.89 "Hg10 mi
12:54 PM62 °FScattered clouds.6 mph37%29.92 "Hg10 mi
11:54 AM60 °FScattered clouds.10 mph35%29.94 "Hg10 mi
10:54 AM57 °FBroken clouds.9 mph41%29.95 "Hg10 mi
9:54 AM55 °FOvercast.10 mph45%29.96 "Hg10 mi
Weather by CustomWeather, © 2015

See weather overviewHow to use our weather pages